Weather History for Tunica, MS

Change the Weather History Date:

Friday, July 26, 2013

  Actual Average (KMEM) Record (KMEM)
Temperature  
Mean Temperature 70 °F 83 °F  
Max Temperature 78 °F 92 °F 102 °F (1952)
Min Temperature 62 °F 74 °F 66 °F (1962)
Degree Days  
Heating Degree Days 0 0  
Month to date heating degree days 0  
Since 1 June heating degree days 0  
Since 1 July heating degree days 0  
Cooling Degree Days 5 18  
Month to date cooling degree days 464  
Year to date cooling degree days 1223  
Since 1 June cooling degree days 902  
Growing Degree Days 20 (Base 50)    
Moisture  
Dew Point 64 °F    
Average Humidity 80    
Maximum Humidity 100    
Minimum Humidity 54    
Precipitation  
Precipitation 0.00 in 0.16 in 3.67 in (1886)
Month to date precipitation 3.89  
Year to date precipitation 31.80  
Snow  
Snow 0.00 in 0.00 in - ()
Month to date snowfall 0.0  
Since 1 June snowfall 0.0  
Since 1 July snowfall 0.0  
Snow Depth -    
Sea Level Pressure  
Sea Level Pressure 30.05 in    
Wind  
Wind Speed 2 mph (NNW)    
Max Wind Speed 13 mph    
Max Gust Speed -    
Visibility 10 miles    
Events Fog , Rain    
T = Trace of Precipitation, MM = Missing Value Source: NWS Daily Summary

Daily Weather History Graph

Daily Weather History Graph

Search for Another Location

Airport:

Trip Planner

Search our weather history database for the weather conditions in past years. The results will help you decide how hot, cold, wet, or windy it might be!

Date:

Astronomy

Jul. 26, 2013 Rise Set
Actual Time 6:07 AM CDT 8:08 PM CDT
Civil Twilight 5:39 AM CDT 8:36 PM CDT
Nautical Twilight 5:05 AM CDT 9:10 PM CDT
Astronomical Twilight 4:28 AM CDT 9:46 PM CDT
Moon 10:37 PM CDT (7/26) 10:29 AM CDT (7/26)
Length of Visible Light 14h 56m
Length of Day
14h 00m
Waning Gibbous, 80% of the Moon is Illuminated
Jul 26
Waning Gibbous
Jul 29
Last Quarter
Aug 6
New
Aug 14
First Quarter
Aug 20
Full

Hourly Weather History & Observations

Time (CDT) Temp. Dew Point Humidity Pressure Visibility Wind Dir Wind Speed Gust Speed Precip Events Conditions
12:15 AM 64.4 °F 62.6 °F 94% 30.07 in 10.0 mi NNW 3.5 mph - N/A   Clear
12:35 AM 66.2 °F 62.6 °F 88% 30.08 in 10.0 mi NW 3.5 mph - N/A   Clear
12:55 AM 64.4 °F 62.6 °F 94% 30.08 in 10.0 mi NW 4.6 mph - N/A   Clear
1:15 AM 64.4 °F 62.6 °F 94% 30.07 in 10.0 mi NNW 3.5 mph - N/A   Clear
1:35 AM 64.4 °F 62.6 °F 94% 30.06 in 10.0 mi Calm Calm - N/A   Clear
1:55 AM 64.4 °F 62.6 °F 94% 30.06 in 10.0 mi NNW 3.5 mph - N/A   Clear
2:15 AM 62.6 °F 60.8 °F 94% 30.07 in 10.0 mi North 3.5 mph - N/A   Clear
2:35 AM 64.4 °F 62.6 °F 94% 30.07 in 10.0 mi North 3.5 mph - N/A   Clear
2:55 AM 64.4 °F 62.6 °F 94% 30.06 in 10.0 mi Calm Calm - N/A   Clear
3:15 AM 64.4 °F 62.6 °F 94% 30.06 in 10.0 mi Calm Calm - N/A   Clear
3:35 AM 62.6 °F 62.6 °F 100% 30.07 in 10.0 mi Calm Calm - N/A   Clear
3:55 AM 62.6 °F 60.8 °F 94% 30.06 in 10.0 mi Calm Calm - N/A   Clear
4:15 AM 62.6 °F 60.8 °F 94% 30.06 in 10.0 mi Calm Calm - N/A   Clear
4:35 AM 62.6 °F 60.8 °F 94% 30.06 in 10.0 mi Calm Calm - N/A   Clear
4:55 AM 62.6 °F 60.8 °F 94% 30.06 in 10.0 mi Calm Calm - N/A   Clear
5:15 AM 62.6 °F 60.8 °F 94% 30.06 in 4.0 mi Calm Calm - N/A   Clear
5:35 AM 62.6 °F 60.8 °F 94% 30.06 in 0.2 mi Calm Calm - N/A Fog Fog
5:55 AM 62.6 °F 60.8 °F 94% 30.07 in 0.8 mi Calm Calm - N/A   Mist
6:15 AM 62.6 °F 60.8 °F 94% 30.07 in 1.5 mi Calm Calm - N/A   Mist
6:35 AM 62.6 °F 60.8 °F 94% 30.07 in 10.0 mi Calm Calm - N/A   Clear
6:55 AM 62.6 °F 62.6 °F 100% 30.08 in 10.0 mi Calm Calm - N/A   Clear
7:15 AM 64.4 °F 62.6 °F 94% 30.08 in 10.0 mi Calm Calm - N/A   Clear
7:35 AM 68.0 °F 64.4 °F 88% 30.07 in 10.0 mi Calm Calm - N/A   Clear
7:55 AM 68.0 °F 66.2 °F 94% 30.07 in 10.0 mi Calm Calm - N/A   Clear
8:15 AM 69.8 °F 66.2 °F 88% 30.08 in 10.0 mi Calm Calm - N/A   Clear
8:35 AM 69.8 °F 64.4 °F 83% 30.08 in 10.0 mi Calm Calm - N/A   Clear
8:55 AM 71.6 °F 64.4 °F 78% 30.08 in 10.0 mi Calm Calm - N/A   Clear
9:15 AM 71.6 °F 64.4 °F 78% 30.08 in 10.0 mi Calm Calm - N/A   Clear
9:35 AM 73.4 °F 66.2 °F 78% 30.09 in 10.0 mi Calm Calm - N/A   Clear
9:55 AM 73.4 °F 66.2 °F 78% 30.08 in 10.0 mi South 3.5 mph - N/A   Clear
10:15 AM 75.2 °F 64.4 °F 69% 30.09 in 10.0 mi West 3.5 mph - N/A   Clear
10:35 AM 77.0 °F 66.2 °F 69% 30.09 in 10.0 mi Calm Calm - N/A   Clear
10:55 AM 77.0 °F 64.4 °F 65% 30.08 in 10.0 mi Calm Calm - N/A   Clear
11:15 AM 78.8 °F 64.4 °F 61% 30.08 in 10.0 mi East 3.5 mph - N/A   Clear
11:35 AM 78.8 °F 62.6 °F 57% 30.09 in 10.0 mi SW 4.6 mph - N/A   Clear
11:55 AM 78.8 °F 62.6 °F 57% 30.08 in 10.0 mi Calm Calm - N/A   Clear
12:15 PM 78.8 °F 60.8 °F 54% 30.07 in 10.0 mi ENE 4.6 mph - N/A   Clear
12:35 PM 78.8 °F 62.6 °F 57% 30.06 in 10.0 mi ENE 3.5 mph - N/A   Clear
12:55 PM 78.8 °F 64.4 °F 61% 30.06 in 10.0 mi SE 3.5 mph - N/A   Clear
1:15 PM 78.8 °F 62.6 °F 57% 30.06 in 10.0 mi Calm Calm - N/A   Clear
1:35 PM 78.8 °F 62.6 °F 57% 30.06 in 10.0 mi ESE 3.5 mph - N/A   Clear
1:55 PM 78.8 °F 62.6 °F 57% 30.06 in 10.0 mi SW 4.6 mph - N/A   Clear
2:15 PM 78.8 °F 64.4 °F 61% 30.06 in 10.0 mi SSW 4.6 mph - N/A   Clear
2:35 PM 78.8 °F 64.4 °F 61% 30.06 in 10.0 mi WSW 3.5 mph - N/A   Clear
2:55 PM 78.8 °F 64.4 °F 61% 30.06 in 10.0 mi Calm Calm - N/A   Clear
3:15 PM 78.8 °F 62.6 °F 57% 30.06 in 10.0 mi WSW 3.5 mph - N/A   Clear
3:35 PM 78.8 °F 64.4 °F 61% 30.06 in 10.0 mi WSW 4.6 mph - N/A   Clear
3:55 PM 78.8 °F 64.4 °F 61% 30.05 in 10.0 mi Calm Calm - N/A   Clear
4:15 PM 77.0 °F 64.4 °F 65% 30.04 in 10.0 mi Calm Calm - N/A   Clear
4:35 PM 77.0 °F 64.4 °F 65% 30.04 in 10.0 mi NNE 3.5 mph - N/A   Clear
4:55 PM 77.0 °F 64.4 °F 65% 30.04 in 10.0 mi North 3.5 mph - N/A   Clear
5:15 PM 77.0 °F 64.4 °F 65% 30.04 in 10.0 mi NNW 4.6 mph - N/A   Scattered Clouds
5:35 PM 77.0 °F 66.2 °F 69% 30.03 in 10.0 mi North 4.6 mph - N/A   Scattered Clouds
5:55 PM 77.0 °F 66.2 °F 69% 30.02 in 10.0 mi NNE 8.1 mph - N/A Rain Light Rain
6:15 PM 77.0 °F 68.0 °F 74% 30.01 in 10.0 mi NE 4.6 mph - N/A   Clear
6:35 PM 75.2 °F 68.0 °F 78% 30.01 in 10.0 mi NE 3.5 mph - N/A   Clear
6:55 PM 75.2 °F 68.0 °F 78% 29.98 in 10.0 mi NE 12.7 mph - N/A   Clear
7:15 PM 75.2 °F 66.2 °F 73% 30.01 in 10.0 mi NW 5.8 mph - N/A   Clear
7:35 PM 73.4 °F 66.2 °F 78% 30.01 in 10.0 mi North 4.6 mph - N/A   Clear
7:55 PM 73.4 °F 68.0 °F 83% 30.00 in 10.0 mi NNW 3.5 mph - N/A   Clear
8:15 PM 73.4 °F 68.0 °F 83% 30.00 in 10.0 mi North 3.5 mph - N/A   Clear
8:35 PM 73.4 °F 68.0 °F 83% 30.00 in 10.0 mi Calm Calm - N/A   Clear
8:55 PM 71.6 °F 68.0 °F 88% 29.99 in 10.0 mi Calm Calm - N/A   Clear
9:15 PM 73.4 °F 68.0 °F 83% 30.00 in 10.0 mi Calm Calm - N/A   Clear
9:35 PM 71.6 °F 68.0 °F 88% 30.00 in 10.0 mi Calm Calm - N/A   Clear
9:55 PM 71.6 °F 68.0 °F 88% 30.00 in 10.0 mi West 3.5 mph - N/A   Clear
10:15 PM 71.6 °F 69.8 °F 94% 30.00 in 10.0 mi Calm Calm - N/A   Clear
10:35 PM 71.6 °F 69.8 °F 94% 30.00 in 10.0 mi Calm Calm - N/A   Clear
10:55 PM 71.6 °F 68.0 °F 88% 30.00 in 10.0 mi Calm Calm - N/A   Clear
11:15 PM 71.6 °F 68.0 °F 88% 30.00 in 10.0 mi Calm Calm - N/A   Clear
11:35 PM 71.6 °F 68.0 °F 88% 30.01 in 10.0 mi Calm Calm - N/A   Scattered Clouds
11:55 PM 71.6 °F 69.8 °F 94% 30.01 in 10.0 mi Calm Calm - N/A   Scattered Clouds